TimeEDT,TemperatureF,Dew PointF,Humidity,Sea Level PressureIn,VisibilityMPH,Wind Direction,Wind SpeedMPH,Gust SpeedMPH,PrecipitationIn,Events,Conditions,WindDirDegrees,DateUTC
12:00 AM,59.0,53.6,82,29.96,10.0,SSW,5.8,-,N/A,,Scattered Clouds,200,2012-10-15 04:00:00
12:21 AM,60.8,53.6,77,29.95,10.0,SSW,8.1,-,N/A,,Mostly Cloudy,200,2012-10-15 04:21:00
1:06 AM,64.4,55.4,73,29.93,10.0,SSW,9.2,-,N/A,,Scattered Clouds,210,2012-10-15 05:06:00
1:27 AM,64.4,55.4,73,29.92,10.0,SSW,9.2,-,N/A,,Clear,200,2012-10-15 05:27:00
1:48 AM,64.4,55.4,73,29.91,10.0,SSW,10.4,16.1,N/A,,Clear,210,2012-10-15 05:48:00
2:09 AM,66.2,55.4,68,29.91,10.0,SSW,10.4,-,N/A,,Clear,210,2012-10-15 06:09:00
2:30 AM,64.4,55.4,73,29.90,10.0,SSW,9.2,16.1,N/A,,Clear,200,2012-10-15 06:30:00
2:51 AM,64.4,55.4,73,29.89,10.0,SSW,6.9,-,N/A,,Clear,200,2012-10-15 06:51:00
3:12 AM,64.4,55.4,73,29.88,10.0,SSW,8.1,-,N/A,,Clear,200,2012-10-15 07:12:00
3:33 AM,64.4,55.4,73,29.87,10.0,SSW,9.2,-,N/A,,Clear,200,2012-10-15 07:33:00
3:54 AM,64.4,55.4,73,29.85,10.0,SSW,6.9,-,N/A,,Clear,200,2012-10-15 07:54:00
4:15 AM,64.4,55.4,73,29.85,10.0,SSW,4.6,-,N/A,,Clear,210,2012-10-15 08:15:00
4:39 AM,64.4,55.4,73,29.85,10.0,SW,6.9,-,N/A,,Clear,220,2012-10-15 08:39:00
5:00 AM,64.4,55.4,73,29.84,10.0,SSW,8.1,-,N/A,,Clear,200,2012-10-15 09:00:00
5:21 AM,64.4,55.4,73,29.83,10.0,SSW,8.1,-,N/A,,Clear,210,2012-10-15 09:21:00
5:42 AM,64.4,55.4,73,29.83,10.0,SSW,5.8,-,N/A,,Clear,210,2012-10-15 09:42:00
6:03 AM,64.4,55.4,73,29.82,10.0,SW,4.6,-,N/A,,Clear,220,2012-10-15 10:03:00
6:45 AM,64.4,55.4,73,29.82,10.0,South,8.1,-,N/A,,Clear,190,2012-10-15 10:45:00
7:06 AM,64.4,55.4,73,29.82,10.0,SSW,6.9,-,N/A,,Clear,210,2012-10-15 11:06:00
7:27 AM,64.4,55.4,73,29.81,10.0,SSW,8.1,-,N/A,,Clear,210,2012-10-15 11:27:00
7:48 AM,64.4,55.4,73,29.81,10.0,SSW,9.2,16.1,N/A,,Clear,210,2012-10-15 11:48:00
8:09 AM,66.2,55.4,68,29.80,10.0,SSW,10.4,17.3,N/A,,Clear,210,2012-10-15 12:09:00
8:33 AM,66.2,55.4,68,29.80,10.0,SSW,5.8,-,N/A,,Clear,210,2012-10-15 12:33:00
8:54 AM,66.2,55.4,68,29.80,10.0,SW,11.5,19.6,N/A,,Scattered Clouds,220,2012-10-15 12:54:00
10:39 AM,66.2,59.0,78,29.80,10.0,SW,11.5,20.7,N/A,,Overcast,230,2012-10-15 14:39:00
11:00 AM,66.2,59.0,78,29.80,10.0,SW,6.9,10.4,N/A,,Overcast,230,2012-10-15 15:00:00
11:21 AM,66.2,60.8,83,29.80,10.0,SW,5.8,-,N/A,,Mostly Cloudy,220,2012-10-15 15:21:00
11:42 AM,68.0,60.8,78,29.78,10.0,SSW,10.4,-,N/A,,Clear,210,2012-10-15 15:42:00
12:03 PM,68.0,59.0,73,29.77,10.0,SW,6.9,-,N/A,,Mostly Cloudy,230,2012-10-15 16:03:00
12:24 PM,69.8,59.0,68,29.77,10.0,SW,10.4,18.4,N/A,,Mostly Cloudy,220,2012-10-15 16:24:00
12:45 PM,68.0,59.0,73,29.76,10.0,SSW,6.9,-,N/A,,Overcast,200,2012-10-15 16:45:00
1:09 PM,68.0,60.8,78,29.75,10.0,SW,5.8,-,N/A,,Mostly Cloudy,220,2012-10-15 17:09:00
1:30 PM,64.4,60.8,88,29.75,10.0,SW,6.9,-,N/A,,Mostly Cloudy,220,2012-10-15 17:30:00
2:12 PM,64.4,60.8,88,29.74,5.0,SSW,8.1,-,N/A,,Overcast,200,2012-10-15 18:12:00
2:54 PM,64.4,60.8,88,29.73,10.0,West,9.2,-,N/A,,Overcast,270,2012-10-15 18:54:00
3:15 PM,60.8,59.0,94,29.74,2.0,West,8.1,-,N/A,,Overcast,270,2012-10-15 19:15:00
3:36 PM,60.8,59.0,94,29.72,5.0,Calm,Calm,-,N/A,,Scattered Clouds,0,2012-10-15 19:36:00
3:57 PM,62.6,59.0,88,29.70,10.0,Calm,Calm,-,N/A,,Clear,0,2012-10-15 19:57:00
4:18 PM,64.4,60.8,88,29.71,10.0,Calm,Calm,-,N/A,,Mostly Cloudy,0,2012-10-15 20:18:00
4:39 PM,64.4,59.0,83,29.70,10.0,Calm,Calm,-,N/A,,Mostly Cloudy,0,2012-10-15 20:39:00
5:00 PM,64.4,60.8,88,29.70,10.0,NNW,3.5,-,N/A,,Mostly Cloudy,330,2012-10-15 21:00:00
5:21 PM,64.4,59.0,83,29.71,10.0,Calm,Calm,-,N/A,,Mostly Cloudy,0,2012-10-15 21:21:00
5:45 PM,59.0,57.2,94,29.72,0.2,NNE,3.5,-,N/A,,Overcast,20,2012-10-15 21:45:00
5:57 PM,60.8,57.2,88,29.72,10.0,East,4.6,-,N/A,,Mostly Cloudy,80,2012-10-15 21:57:00
8:12 PM,59.0,55.4,88,29.75,-9999.0,NNW,3.5,-,N/A,,Unknown,330,2012-10-16 00:12:00
8:33 PM,-9999,-9999,N/A,29.75,-9999.0,Calm,Calm,-,N/A,,Unknown,0,2012-10-16 00:33:00
8:54 PM,57.2,55.4,94,29.77,1.5,Calm,Calm,-,N/A,,Unknown,0,2012-10-16 00:54:00
9:15 PM,55.4,53.6,94,29.77,5.0,WNW,8.1,-,N/A,,Overcast,290,2012-10-16 01:15:00
9:18 PM,55.4,53.6,94,29.78,7.0,West,8.1,-,N/A,,Overcast,280,2012-10-16 01:18:00
9:57 PM,-9999,-9999,N/A,-9999,-9999.0,North,-9999.0,-,N/A,,Unknown,0,2012-10-16 01:57:00
10:21 PM,53.6,51.8,94,29.79,7.0,WNW,5.8,-,N/A,,Unknown,290,2012-10-16 02:21:00
10:42 PM,53.6,50.0,88,29.80,10.0,WNW,4.6,-,N/A,,Clear,300,2012-10-16 02:42:00
11:03 PM,51.8,50.0,94,29.80,7.0,WNW,4.6,-,N/A,,Clear,300,2012-10-16 03:03:00
11:24 PM,50.0,50.0,100,29.81,4.0,WNW,5.8,-,N/A,,Clear,290,2012-10-16 03:24:00
11:45 PM,50.0,48.2,94,29.81,10.0,WNW,5.8,-,N/A,,Clear,290,2012-10-16 03:45:00